This demonstration page uses our WeatherBlox Daily Observations layout. Learn more.

Left ArrowRight Arrow

41.55636, -103.73856

Hourly Observations for July 30, 2020

Temp ( °F °C ) Dew Point ( °F °C ) Humidity (%) Winds ( mph kmh ) Pressure ( in mb ) Visibility ( mi km ) Precip ( " mm )
6:58 pm 18:58 Mostly Clear with Light Showers 68 19.9 53 11.6 59 59 NNW 9 15 29.98 1015 10 16 0.00 0.00
7:58 pm 19:58 Clear 66 19 55 13 68 68 NNW 8 13 29.97 1015 10 16 0.00 0.00
8:58 pm 20:58 Mostly Cloudy 64 18 57 14 78 78 NW 9 15 30.02 1017 10 16 0.00 0.00
9:58 pm 21:58 Mostly Cloudy 62 16.7 56 13.4 81 81 Calm 30.03 1017 10 16 0.00 0.00
10:58 pm 22:58 Mostly Cloudy 62 16.6 55 13 79 79 NNW 5 7 30.04 1017 10 16 0.00 0.00
11:58 pm 23:58 Partly Cloudy 61 16 56 13.2 84 84 Calm 30.03 1017 10 16 0.00 0.00
12:58 am 00:58 Mostly Cloudy 60 15.5 55 13 85 85 SW 3 6 30.02 1017 10 16 0.00 0.00
1:58 am 01:58 Mostly Clear 61 15.9 57 13.8 87 87 WNW 3 6 30.03 1017 10 16 0.00 0.00
2:58 am 02:58 Cloudy 60 15.5 57 13.7 89 89 Calm 30.03 1017 10 16 0.00 0.00
3:58 am 03:58 Mostly Cloudy 61 16.1 57 14 87 87 NW 5 7 30.04 1017 10 16 0.00 0.00
4:58 am 04:58 Mostly Cloudy with Showers 61 16 59 15 94 94 NW 3 6 30.05 1018 5 8 0.03 0.76
5:58 am 05:58 Cloudy with Mist and Fog 61 16.1 59 15.2 94 94 N 3 6 30.08 1019 6 10 0.00 0.00
6:58 am 06:58 Mostly Cloudy with Light Showers 62 16.4 60 15.3 93 93 ENE 8 13 30.11 1020 7 11 0.02 0.51
7:58 am 07:58 Mostly Cloudy 62 16.4 59 15.2 93 93 NNE 9 15 30.14 1021 10 16 0.01 0.25
8:58 am 08:58 Mostly Cloudy 62 16.7 58 14.6 88 88 NE 6 9 30.15 1021 10 16 0.00 0.00
9:58 am 09:58 Mostly Cloudy 64 18 59 15 83 83 ENE 6 9 30.17 1022 10 16 0.00 0.00
10:58 am 10:58 Mostly Cloudy 64 17.8 58 14.7 82 82 NNE 8 13 30.18 1022 10 16 0.00 0.00
11:58 am 11:58 Mostly Cloudy with Light Showers 62 16.9 59 14.9 88 88 NE 12 19 30.20 1023 7 11 0.00 0.00
12:58 pm 12:58 Mostly Cloudy 63 17.2 59 14.9 86 86 Calm 30.21 1023 10 16 0.02 0.51
1:58 pm 13:58 Mostly Cloudy 67 19.3 57 13.9 71 71 Calm 30.20 1023 10 16 0.00 0.00
2:58 pm 14:58 Mostly Cloudy 72 22 55 13 57 57 SW 3 6 30.18 1022 10 16 0.00 0.00
3:58 pm 15:58 Mostly Cloudy 73 23 55 13 53 53 WNW 7 11 30.16 1021 10 16 0.00 0.00
4:58 pm 16:58 Mostly Cloudy 71 21.7 56 13.2 59 59 W 7 11 30.18 1022 10 16 0.00 0.00
5:58 pm 17:58 Mostly Cloudy 73 22.6 56 13.2 55 55 NNW 3 6 30.18 1022 10 16 0.00 0.00

Powered by AerisWeather